Flag for Germany Weather past 2 weeks in Zeitz, Saxony-Anhalt, Germany

Now
51 °F

Overcast.


Feels Like: 51 °F
Forecast: 45 / 66 °F
Wind: 2 mph from Southwest

Location: Gera-Leumnitz

Current Time: May 23, 2015 at 1:07:18 AM

Latest Report: May 23, 2015 at 12:00 AM


Visibility: 17 mi

Pressure: 30.21 "Hg

Humidity: 64%

Dew point: 39 °F

Location of ZeitzLocation

Historic Weather in Zeitz — Graph

°F

Zeitz temperature yesterday

Maximum temperature yesterday: 64 °F (at 4:00 PM)
Minimum temperature yesterday: 37 °F (at 5:00 AM)
Average temperature yesterday: 52 °F

Past Weeks' High & Low Weather Summary

 TemperatureHumidityPressure
High79 °F (May 12, 3:00 PM)96% (May 21, 12:00 AM)30.40 "Hg (May 21, 12:00 AM)
Low37 °F (May 22, 5:00 AM)26% (May 19, 5:00 PM)29.67 "Hg (May 18, 8:00 PM)
Average55 °F63%30.07 "Hg
* Reported Midnight between May 7 and May 8 — Midnight between May 22 and May 23, Zeitz, Weather by CustomWeather, © 2015

Note: Actual official high and low records may vary slightly from our data, if they occured in-between our weather recording intervals... More about our weather records

Advertising

Zeitz weather history for previous 24 hours

 ConditionsComfort  
Time TempWeatherWind HumidityBarometerVisibility
12:00 AM
Sat, May 23
51 °FOvercast.2 mph64%30.21 "Hg17 mi
11:00 PM
Fri, May 22
51 °FOvercast.3 mph62%30.22 "Hg16 mi
10:00 PM53 °FOvercast.3 mph61%30.21 "Hg19 mi
9:00 PM56 °FOvercast.2 mph56%30.20 "Hg31 mi
8:00 PM60 °FOvercast.2 mph43%30.19 "Hg40 mi
7:00 PM61 °FOvercast.2 mph38%30.19 "Hg37 mi
6:00 PM62 °FOvercast.2 mph38%30.20 "Hg37 mi
5:00 PM63 °FOvercast.2 mph40%30.22 "Hg34 mi
4:00 PM64 °FPartly sunny.3 mph40%30.23 "Hg31 mi
3:00 PM61 °FPartly sunny.2 mph40%30.25 "Hg37 mi
2:00 PM60 °FOvercast.2 mph42%30.27 "Hg37 mi
1:00 PM59 °FOvercast.1 mph44%30.29 "Hg37 mi
12:00 PM60 °FPartly sunny.2 mph43%30.30 "Hg37 mi
11:00 AM58 °FPassing clouds.3 mph45%30.32 "Hg37 mi
10:00 AM55 °FPassing clouds.1 mph53%30.33 "Hg28 mi
9:00 AM52 °FPassing clouds.2 mph64%30.34 "Hg28 mi
8:00 AM45 °FPassing clouds.2 mph76%30.35 "Hg28 mi
7:00 AM40 °FPassing clouds.2 mph86%30.36 "Hg28 mi
6:00 AM37 °FSunny.3 mph92%30.37 "Hg25 mi
5:00 AM37 °FClear.3 mph92%30.37 "Hg7 mi
4:00 AM38 °FPassing clouds.3 mph90%30.37 "Hg9 mi
3:00 AM39 °FPassing clouds.3 mph90%30.36 "Hg8 mi
2:00 AM41 °FClear.1 mph85%30.35 "Hg14 mi
1:00 AM45 °FClear.1 mph80%30.34 "Hg16 mi
Weather by CustomWeather, © 2015

See weather overviewHow to use our weather pages